Location: Ernsee
(50.8780°N, 12.0389°E)
Time: 16:18:27
(UTC+00:00)

Cosmos 1606 Rocket - Pass Details

Date: 20 January 2020
Orbit: 602 x 633 km, 82.5° (Epoch: 20 February)

Event Time Altitude Azimuth Distance (km) Brightness Sun altitude
Rises 05:15:47 0° 194° (SSW) 2,911 7.0 -16.6°
Reaches altitude 10° 05:18:01 10° 197° (SSW) 2,005 6.1 -16.3°
Maximum altitude 05:22:27 71° 281° (W) 666 3.5 -15.6°
Drops below altitude 10° 05:26:54 10° 7° (N) 2,004 6.1 -14.9°
Sets 05:29:09 0° 9° (N) 2,910 7.0 -14.6°
